﻿測定場所 (Monitoring sites),日付 (Measurement date),時間 (Measurement time),線量率 最大値 (max) μGy/h,線量率 最小値 (min) μGy/h,線量率 平均値 (average) μGy/h,
新宿 (Shinjuku),2012-12-09,23:01～24:00,0.0505,0.0430,0.0462,
新宿 (Shinjuku),2012-12-09,22:01～23:00,0.0490,0.0427,0.0465,
新宿 (Shinjuku),2012-12-09,21:01～22:00,0.0488,0.0433,0.0464,
新宿 (Shinjuku),2012-12-09,20:01～21:00,0.0513,0.0429,0.0467,
新宿 (Shinjuku),2012-12-09,19:01～20:00,0.0502,0.0437,0.0465,
新宿 (Shinjuku),2012-12-09,18:01～19:00,0.0491,0.0435,0.0462,
新宿 (Shinjuku),2012-12-09,17:01～18:00,0.0489,0.0426,0.0459,
新宿 (Shinjuku),2012-12-09,16:01～17:00,0.0495,0.0410,0.0462,
新宿 (Shinjuku),2012-12-09,15:01～16:00,0.0488,0.0421,0.0462,
新宿 (Shinjuku),2012-12-09,14:01～15:00,0.0496,0.0441,0.0465,
新宿 (Shinjuku),2012-12-09,13:01～14:00,0.0495,0.0429,0.0465,
新宿 (Shinjuku),2012-12-09,12:01～13:00,0.0501,0.0434,0.0464,
新宿 (Shinjuku),2012-12-09,11:01～12:00,0.0495,0.0433,0.0463,
新宿 (Shinjuku),2012-12-09,10:01～11:00,0.0492,0.0424,0.0466,
新宿 (Shinjuku),2012-12-09,09:01～10:00,0.0486,0.0420,0.0462,
新宿 (Shinjuku),2012-12-09,08:01～09:00,0.0507,0.0435,0.0466,
新宿 (Shinjuku),2012-12-09,07:01～08:00,0.0497,0.0427,0.0464,
新宿 (Shinjuku),2012-12-09,06:01～07:00,0.0498,0.0428,0.0468,
新宿 (Shinjuku),2012-12-09,05:01～06:00,0.0499,0.0424,0.0463,
新宿 (Shinjuku),2012-12-09,04:01～05:00,0.0508,0.0429,0.0465,
新宿 (Shinjuku),2012-12-09,03:01～04:00,0.0500,0.0432,0.0464,
新宿 (Shinjuku),2012-12-09,02:01～03:00,0.0506,0.0430,0.0465,
新宿 (Shinjuku),2012-12-09,01:01～02:00,0.0500,0.0431,0.0462,
新宿 (Shinjuku),2012-12-09,00:01～01:00,0.0504,0.0438,0.0470,
新宿 (Shinjuku),2012-12-08,23:01～24:00,0.0501,0.0431,0.0464,
新宿 (Shinjuku),2012-12-08,22:01～23:00,0.0499,0.0434,0.0466,
新宿 (Shinjuku),2012-12-08,21:01～22:00,0.0503,0.0433,0.0464,
新宿 (Shinjuku),2012-12-08,20:01～21:00,0.0509,0.0434,0.0468,
新宿 (Shinjuku),2012-12-08,19:01～20:00,0.0491,0.0415,0.0461,
新宿 (Shinjuku),2012-12-08,18:01～19:00,0.0490,0.0427,0.0459,
新宿 (Shinjuku),2012-12-08,17:01～18:00,0.0501,0.0433,0.0462,
新宿 (Shinjuku),2012-12-08,16:01～17:00,0.0491,0.0432,0.0459,
新宿 (Shinjuku),2012-12-08,15:01～16:00,0.0498,0.0434,0.0462,
新宿 (Shinjuku),2012-12-08,14:01～15:00,0.0493,0.0426,0.0463,
新宿 (Shinjuku),2012-12-08,13:01～14:00,0.0492,0.0418,0.0461,
新宿 (Shinjuku),2012-12-08,12:01～13:00,0.0494,0.0409,0.0456,
新宿 (Shinjuku),2012-12-08,11:01～12:00,0.0495,0.0420,0.0463,
新宿 (Shinjuku),2012-12-08,10:01～11:00,0.0500,0.0435,0.0471,
新宿 (Shinjuku),2012-12-08,09:01～10:00,0.0502,0.0437,0.0472,
新宿 (Shinjuku),2012-12-08,08:01～09:00,0.0509,0.0433,0.0473,
新宿 (Shinjuku),2012-12-08,07:01～08:00,0.0501,0.0422,0.0469,
新宿 (Shinjuku),2012-12-08,06:01～07:00,0.0505,0.0441,0.0469,
新宿 (Shinjuku),2012-12-08,05:01～06:00,0.0499,0.0437,0.0469,
新宿 (Shinjuku),2012-12-08,04:01～05:00,0.0506,0.0412,0.0466,
新宿 (Shinjuku),2012-12-08,03:01～04:00,0.0492,0.0428,0.0463,
新宿 (Shinjuku),2012-12-08,02:01～03:00,0.0516,0.0434,0.0467,
新宿 (Shinjuku),2012-12-08,01:01～02:00,0.0507,0.0429,0.0469,
新宿 (Shinjuku),2012-12-08,00:01～01:00,0.0498,0.0435,0.0467,
新宿 (Shinjuku),2012-12-07,23:01～24:00,0.0498,0.0436,0.0467,
新宿 (Shinjuku),2012-12-07,22:01～23:00,0.0508,0.0424,0.0463,
新宿 (Shinjuku),2012-12-07,21:01～22:00,0.0516,0.0433,0.0462,
新宿 (Shinjuku),2012-12-07,20:01～21:00,0.0495,0.0430,0.0462,
新宿 (Shinjuku),2012-12-07,19:01～20:00,0.0492,0.0412,0.0458,
新宿 (Shinjuku),2012-12-07,18:01～19:00,0.0483,0.0433,0.0459,
新宿 (Shinjuku),2012-12-07,17:01～18:00,0.0490,0.0412,0.0460,
新宿 (Shinjuku),2012-12-07,16:01～17:00,0.0507,0.0435,0.0461,
新宿 (Shinjuku),2012-12-07,15:01～16:00,0.0501,0.0415,0.0459,
新宿 (Shinjuku),2012-12-07,14:01～15:00,0.0496,0.0428,0.0463,
新宿 (Shinjuku),2012-12-07,13:01～14:00,0.0498,0.0431,0.0463,
新宿 (Shinjuku),2012-12-07,12:01～13:00,0.0503,0.0426,0.0461,
新宿 (Shinjuku),2012-12-07,11:01～12:00,0.0497,0.0423,0.0458,
新宿 (Shinjuku),2012-12-07,10:01～11:00,0.0483,0.0426,0.0459,
新宿 (Shinjuku),2012-12-07,09:01～10:00,0.0506,0.0439,0.0464,
新宿 (Shinjuku),2012-12-07,08:01～09:00,0.0498,0.0426,0.0463,
新宿 (Shinjuku),2012-12-07,07:01～08:00,0.0484,0.0434,0.0460,
新宿 (Shinjuku),2012-12-07,06:01～07:00,0.0487,0.0419,0.0458,
新宿 (Shinjuku),2012-12-07,05:01～06:00,0.0505,0.0424,0.0464,
新宿 (Shinjuku),2012-12-07,04:01～05:00,0.0499,0.0429,0.0462,
新宿 (Shinjuku),2012-12-07,03:01～04:00,0.0486,0.0429,0.0458,
新宿 (Shinjuku),2012-12-07,02:01～03:00,0.0491,0.0413,0.0460,
新宿 (Shinjuku),2012-12-07,01:01～02:00,0.0492,0.0433,0.0460,
新宿 (Shinjuku),2012-12-07,00:01～01:00,0.0489,0.0424,0.0462,
新宿 (Shinjuku),2012-12-06,23:01～24:00,0.0509,0.0426,0.0465,
新宿 (Shinjuku),2012-12-06,22:01～23:00,0.0509,0.0426,0.0460,
新宿 (Shinjuku),2012-12-06,21:01～22:00,0.0489,0.0430,0.0458,
新宿 (Shinjuku),2012-12-06,20:01～21:00,0.0488,0.0433,0.0457,
新宿 (Shinjuku),2012-12-06,19:01～20:00,0.0495,0.0416,0.0456,
新宿 (Shinjuku),2012-12-06,18:01～19:00,0.0493,0.0418,0.0457,
新宿 (Shinjuku),2012-12-06,17:01～18:00,0.0491,0.0431,0.0458,
新宿 (Shinjuku),2012-12-06,16:01～17:00,0.0497,0.0420,0.0457,
新宿 (Shinjuku),2012-12-06,15:01～16:00,0.0498,0.0431,0.0464,
新宿 (Shinjuku),2012-12-06,14:01～15:00,0.0502,0.0435,0.0461,
新宿 (Shinjuku),2012-12-06,13:01～14:00,0.0500,0.0426,0.0461,
新宿 (Shinjuku),2012-12-06,12:01～13:00,0.0493,0.0437,0.0459,
新宿 (Shinjuku),2012-12-06,11:01～12:00,0.0504,0.0433,0.0463,
新宿 (Shinjuku),2012-12-06,10:01～11:00,0.0504,0.0441,0.0465,
新宿 (Shinjuku),2012-12-06,09:01～10:00,0.0505,0.0422,0.0458,
新宿 (Shinjuku),2012-12-06,08:01～09:00,0.0491,0.0424,0.0461,
新宿 (Shinjuku),2012-12-06,07:01～08:00,0.0494,0.0414,0.0463,
新宿 (Shinjuku),2012-12-06,06:01～07:00,0.0487,0.0420,0.0459,
新宿 (Shinjuku),2012-12-06,05:01～06:00,0.0497,0.0429,0.0464,
新宿 (Shinjuku),2012-12-06,04:01～05:00,0.0492,0.0418,0.0457,
新宿 (Shinjuku),2012-12-06,03:01～04:00,0.0500,0.0424,0.0458,
新宿 (Shinjuku),2012-12-06,02:01～03:00,0.0488,0.0418,0.0456,
新宿 (Shinjuku),2012-12-06,01:01～02:00,0.0486,0.0425,0.0455,
新宿 (Shinjuku),2012-12-06,00:01～01:00,0.0491,0.0418,0.0459,
新宿 (Shinjuku),2012-12-05,23:01～24:00,0.0500,0.0420,0.0459,
新宿 (Shinjuku),2012-12-05,22:01～23:00,0.0507,0.0420,0.0462,
新宿 (Shinjuku),2012-12-05,21:01～22:00,0.0491,0.0437,0.0463,
新宿 (Shinjuku),2012-12-05,20:01～21:00,0.0479,0.0421,0.0455,
新宿 (Shinjuku),2012-12-05,19:01～20:00,0.0496,0.0437,0.0460,
新宿 (Shinjuku),2012-12-05,18:01～19:00,0.0479,0.0426,0.0455,
新宿 (Shinjuku),2012-12-05,17:01～18:00,0.0493,0.0429,0.0458,
新宿 (Shinjuku),2012-12-05,16:01～17:00,0.0508,0.0429,0.0460,
新宿 (Shinjuku),2012-12-05,15:01～16:00,0.0491,0.0414,0.0458,
新宿 (Shinjuku),2012-12-05,14:01～15:00,0.0514,0.0434,0.0459,
新宿 (Shinjuku),2012-12-05,13:01～14:00,0.0500,0.0440,0.0463,
新宿 (Shinjuku),2012-12-05,12:01～13:00,0.0495,0.0437,0.0463,
新宿 (Shinjuku),2012-12-05,11:01～12:00,0.0507,0.0437,0.0463,
新宿 (Shinjuku),2012-12-05,10:01～11:00,0.0492,0.0433,0.0460,
新宿 (Shinjuku),2012-12-05,09:01～10:00,0.0487,0.0426,0.0458,
新宿 (Shinjuku),2012-12-05,08:01～09:00,0.0509,0.0430,0.0465,
新宿 (Shinjuku),2012-12-05,07:01～08:00,0.0497,0.0425,0.0466,
新宿 (Shinjuku),2012-12-05,06:01～07:00,0.0502,0.0433,0.0466,
新宿 (Shinjuku),2012-12-05,05:01～06:00,0.0493,0.0430,0.0461,
新宿 (Shinjuku),2012-12-05,04:01～05:00,0.0497,0.0432,0.0462,
新宿 (Shinjuku),2012-12-05,03:01～04:00,0.0495,0.0430,0.0460,
新宿 (Shinjuku),2012-12-05,02:01～03:00,0.0499,0.0432,0.0465,
新宿 (Shinjuku),2012-12-05,01:01～02:00,0.0505,0.0429,0.0461,
新宿 (Shinjuku),2012-12-05,00:01～01:00,0.0502,0.0429,0.0462,
新宿 (Shinjuku),2012-12-04,23:01～24:00,0.0487,0.0431,0.0459,
新宿 (Shinjuku),2012-12-04,22:01～23:00,0.0506,0.0419,0.0459,
新宿 (Shinjuku),2012-12-04,21:01～22:00,0.0487,0.0416,0.0457,
新宿 (Shinjuku),2012-12-04,20:01～21:00,0.0500,0.0428,0.0458,
新宿 (Shinjuku),2012-12-04,19:01～20:00,0.0483,0.0423,0.0458,
新宿 (Shinjuku),2012-12-04,18:01～19:00,0.0491,0.0428,0.0461,
新宿 (Shinjuku),2012-12-04,17:01～18:00,0.0494,0.0426,0.0461,
新宿 (Shinjuku),2012-12-04,16:01～17:00,0.0504,0.0416,0.0460,
新宿 (Shinjuku),2012-12-04,15:01～16:00,0.0510,0.0430,0.0467,
新宿 (Shinjuku),2012-12-04,14:01～15:00,0.0497,0.0422,0.0462,
新宿 (Shinjuku),2012-12-04,13:01～14:00,0.0494,0.0423,0.0460,
新宿 (Shinjuku),2012-12-04,12:01～13:00,0.0502,0.0429,0.0462,
新宿 (Shinjuku),2012-12-04,11:01～12:00,0.0496,0.0435,0.0463,
新宿 (Shinjuku),2012-12-04,10:01～11:00,0.0506,0.0458,0.0473,
新宿 (Shinjuku),2012-12-04,09:01～10:00,0.0533,0.0451,0.0485,
新宿 (Shinjuku),2012-12-04,08:01～09:00,0.0551,0.0464,0.0514,
新宿 (Shinjuku),2012-12-04,07:01～08:00,0.0518,0.0435,0.0471,
新宿 (Shinjuku),2012-12-04,06:01～07:00,0.0499,0.0435,0.0465,
新宿 (Shinjuku),2012-12-04,05:01～06:00,0.0492,0.0434,0.0460,
新宿 (Shinjuku),2012-12-04,04:01～05:00,0.0490,0.0418,0.0460,
新宿 (Shinjuku),2012-12-04,03:01～04:00,0.0502,0.0416,0.0465,
新宿 (Shinjuku),2012-12-04,02:01～03:00,0.0513,0.0431,0.0464,
新宿 (Shinjuku),2012-12-04,01:01～02:00,0.0489,0.0420,0.0456,
新宿 (Shinjuku),2012-12-04,00:01～01:00,0.0502,0.0424,0.0460,
新宿 (Shinjuku),2012-12-03,23:01～24:00,0.0487,0.0428,0.0459,
新宿 (Shinjuku),2012-12-03,22:01～23:00,0.0504,0.0432,0.0468,
新宿 (Shinjuku),2012-12-03,21:01～22:00,0.0511,0.0441,0.0472,
新宿 (Shinjuku),2012-12-03,20:01～21:00,0.0518,0.0443,0.0481,
新宿 (Shinjuku),2012-12-03,19:01～20:00,0.0520,0.0449,0.0485,
新宿 (Shinjuku),2012-12-03,18:01～19:00,0.0509,0.0439,0.0476,
新宿 (Shinjuku),2012-12-03,17:01～18:00,0.0497,0.0418,0.0459,
新宿 (Shinjuku),2012-12-03,16:01～17:00,0.0490,0.0429,0.0462,
新宿 (Shinjuku),2012-12-03,15:01～16:00,0.0489,0.0425,0.0462,
新宿 (Shinjuku),2012-12-03,14:01～15:00,0.0496,0.0434,0.0462,
新宿 (Shinjuku),2012-12-03,13:01～14:00,0.0501,0.0439,0.0467,
新宿 (Shinjuku),2012-12-03,12:01～13:00,0.0504,0.0429,0.0464,
新宿 (Shinjuku),2012-12-03,11:01～12:00,0.0521,0.0439,0.0469,
新宿 (Shinjuku),2012-12-03,10:01～11:00,0.0482,0.0466,0.0472,
新宿 (Shinjuku),2012-12-03,09:01～10:00,0.0508,0.0436,0.0471,
新宿 (Shinjuku),2012-12-03,08:01～09:00,0.0502,0.0434,0.0468,
新宿 (Shinjuku),2012-12-03,07:01～08:00,0.0504,0.0432,0.0465,
新宿 (Shinjuku),2012-12-03,06:01～07:00,0.0508,0.0431,0.0461,
新宿 (Shinjuku),2012-12-03,05:01～06:00,0.0492,0.0427,0.0456,
新宿 (Shinjuku),2012-12-03,04:01～05:00,0.0487,0.0417,0.0456,
新宿 (Shinjuku),2012-12-03,03:01～04:00,0.0500,0.0423,0.0459,
新宿 (Shinjuku),2012-12-03,02:01～03:00,0.0510,0.0427,0.0459,
新宿 (Shinjuku),2012-12-03,01:01～02:00,0.0485,0.0427,0.0458,
新宿 (Shinjuku),2012-12-03,00:01～01:00,0.0503,0.0436,0.0471,
